Torna al catalogo

STARLINK-35789

AttivoComunicazioniVLEO
NORAD 67113·PAYLOAD·🇺🇸 United States

Lanciato Dec 15, 2025 da Cape Canaveral Space Force Station

Loading…

Prossimi Passaggi (prossime 24 ore)

TLE

AggiornatoSource: CelesTrak SupGP

Epoca: Sep 14, 2026, 22:36 UTC

1 67113C 25299M   26257.94215278 -.00027227  00000+0 -98606-3 0  2575
2 67113  43.0028 180.3744 0001348 265.4652 247.4578 15.27595050    17

Traccia STARLINK-35789 in tempo reale con AllMySat

Download on the App Store